Hovedside
METAR-TAF:

METAR-TAF

Lufthavner :

Seneca, Oregon, USA

breddegrad: 44-08-18N, lengdegrad: 118-58-54W, høyde over havet: 1422 m

Gjeldene værobservasjon

Denne rapporten ble laget for 28 minutter siden, klokken 11:35 UTC
Flau vind
Temperatur 8°C
Luftfuktighet 49%
Trykk 1026 hPa
Sikt: 16.1 km
Skyfri himmel

METAR: KGCD 201135Z AUTO 00000KT 10SM CLR 08/M02 A3030 RMK AO2 T00841022

Tid: 05:03 (12:03 UTC)


TAF: fraværende

Værobservasjoner og værvarsel for over 4000 flyplasser (METAR- og TAF-rapporter).

Tilgjengelige stasjoner er representert av de røde og gule prikkene på kartet.

Hold musepekeren over prikken for å se navnet på stasjonen.

Klikk så for å se værobservasjoner og -varsler.

For å forandre kartet kan du klikke på den grønne knappen med svart kryss for å zoome inn, på den grønne knappen med strek for å zoome ut, eller på de grønne pilene for å se tilstøtende kart.


METAR-TAF: